Dewpoint
71 71 73 74 74 74 74 73 73 73 73 72 72 72 73 73 72 72 72 72 72 73 73 73 73 72 72 72 72 72 72 72 72 71 72 72 72 72 72 71 71 71 71 71 71 71 70 70 69 68 68 68 68 68 68 67 67 67 66 66 69 69 69 68 68 69 68 68 67 66 66 66 67 68 68 68 67 67 66 67 67 65 64 63 64
71 72 73 73 74 74 74 73 73 73 73 72 72 73 73 73 73 73 73 73 73 73 72 72 72 72 72 72 72 72 72 72 72 72 72 72 72 72 71 71 71 70 70 70 70 70 69 69 68 68 67 66 67 68 68 67 67 67 66 67 69 68 68 68 68 68 67 66 67 66 65 66 67 67 67 67 66 66 65 65 66 64 64 64 63
71 71 72 73 74 74 73 73 73 73 73 72 73 73 73 73 73 73 73 73 72 72 72 72 72 72 72 72 72 72 72 72 72 72 72 72 72 71 71 70 70 70 70 69 69 69 69 68 67 67 67 68 68 68 68 68 68 67 69 69 69 69 69 68 68 67 67 66 65 65 65 65 65 65 66 66 66 65 64 64 64 64 61 63 62
71 71 72 74 74 74 73 73 73 73 73 73 73 73 73 73 73 73 72 72 72 72 72 72 72 72 72 72 72 72 72 72 72 72 72 72 72 71 71 71 70 70 69 69 69 69 69 68 67 68 68 68 67 68 68 68 68 67 68 68 68 69 67 66 66 65 65 63 64 63 64 64 65 66 66 65 65 63 63 64 64 64 64 62 62
71 71 72 73 73 74 73 73 73 73 73 73 73 73 73 73 73 72 72 72 72 72 72 72 72 72 72 71 72 71 72 71 72 72 72 71 71 71 71 71 70 70 70 69 68 68 68 68 68 68 68 67 66 68 68 68 68 68 69 69 68 67 66 65 65 65 65 64 65 64 60 61 61 64 65 64 64 63 62 63 63 63 63 61 63
71 71 72 72 72 73 74 73 73 73 73 73 73 73 73 73 72 72 72 72 72 72 71 72 71 71 71 71 71 71 72 72 72 72 71 71 71 70 70 70 69 69 69 69 68 68 68 68 67 67 67 68 68 67 68 68 68 68 69 68 68 67 66 66 65 65 65 65 65 62 62 63 64 63 64 63 63 63 63 62 62 63 61 60 62
70 71 71 72 72 73 74 73 73 73 72 73 73 73 73 72 72 72 72 72 72 72 72 72 71 71 71 71 71 71 71 71 72 72 71 71 71 70 70 70 70 69 69 69 68 68 68 68 68 68 68 68 68 68 68 68 68 69 69 68 68 67 67 66 64 65 64 63 60 61 62 63 64 63 65 65 64 63 61 63 64 63 60 60 62
70 70 71 72 72 73 73 73 73 72 72 72 73 73 73 73 72 72 72 72 72 72 72 71 71 71 71 71 71 71 71 71 71 72 72 71 70 70 70 70 69 69 69 69 68 67 68 68 67 67 67 68 68 68 68 68 68 68 67 67 68 68 68 64 64 65 64 60 61 61 62 62 63 63 65 65 64 63 63 62 62 62 62 62 61
68 70 71 72 72 73 73 73 72 72 72 72 72 72 72 72 72 72 72 72 71 72 72 71 71 71 71 71 71 71 71 71 71 72 71 71 70 70 69 69 69 69 69 69 67 66 67 67 67 67 67 68 68 67 67 67 67 67 67 67 67 68 68 65 64 64 62 61 62 62 62 62 62 61 64 63 61 63 63 62 63 63 62 62 61
68 70 71 72 72 73 73 73 72 72 72 72 72 72 72 72 72 72 72 72 72 72 72 71 71 71 71 71 71 71 72 71 71 71 71 71 70 69 70 69 69 69 69 68 67 66 66 66 67 67 67 67 67 66 66 66 66 67 66 67 68 69 66 65 64 63 61 62 63 63 64 65 62 61 62 62 61 61 63 62 63 62 61 62 62
69 70 71 72 72 73 73 73 73 72 72 72 72 72 72 72 72 72 72 72 72 71 71 71 71 71 71 71 71 71 71 71 71 70 71 70 70 70 69 69 69 69 69 68 67 66 66 66 67 67 66 66 65 65 66 66 66 66 67 67 68 69 64 64 63 59 61 63 64 64 64 65 62 61 63 62 61 60 60 62 62 62 62 61 62
69 70 71 72 73 73 73 73 72 72 72 72 72 72 72 72 72 72 72 72 71 71 71 71 71 71 71 71 71 70 70 70 70 70 70 70 70 70 69 69 69 69 68 68 67 66 66 67 66 66 66 65 65 65 65 66 65 65 66 67 68 66 63 62 57 58 60 62 63 63 62 61 60 59 61 62 62 62 62 62 62 62 62 61 61
70 71 71 71 72 73 73 73 72 72 72 72 72 72 72 72 72 72 71 71 71 71 71 71 71 71 70 70 70 70 70 70 70 70 70 70 70 70 69 70 69 68 68 67 66 66 66 66 66 66 65 65 66 66 65 65 65 66 66 67 68 63 62 61 56 57 58 59 61 62 62 62 61 61 63 63 62 63 64 64 63 61 61 61 62
70 71 71 72 71 73 73 72 73 72 72 72 72 72 72 72 72 71 71 71 71 71 71 71 70 70 70 70 70 70 70 70 70 70 70 70 70 70 70 70 69 69 68 67 67 66 66 66 66 66 66 66 66 65 64 65 66 66 67 68 69 62 62 61 60 59 61 62 64 63 63 64 62 63 63 62 61 63 63 63 62 63 62 61 60
70 71 71 71 71 72 73 72 72 72 72 73 72 72 72 72 72 71 72 72 71 71 71 71 71 70 70 70 70 70 70 70 70 70 70 70 70 70 70 70 69 68 68 67 67 66 66 66 66 66 66 66 65 64 65 65 66 66 67 69 66 62 62 59 59 61 62 63 64 63 63 64 65 64 64 64 63 63 63 62 62 62 61 61 61
71 71 71 71 72 72 72 72 72 73 73 72 72 72 72 72 72 71 72 71 70 71 71 71 70 70 70 70 70 70 70 70 70 70 70 70 70 70 70 70 69 68 68 68 67 67 66 65 66 66 65 65 64 64 66 66 65 67 69 68 64 63 63 62 60 60 61 62 63 64 63 63 64 64 64 64 63 63 63 62 60 59 61 61 60
71 71 71 71 71 71 71 71 72 72 73 72 72 72 72 72 72 71 71 71 71 71 71 70 70 70 70 69 69 69 70 70 70 70 70 70 70 70 70 69 69 68 68 67 67 66 66 65 65 66 65 64 64 65 66 65 66 67 70 65 65 65 64 63 60 61 61 63 62 61 61 62 64 64 63 63 63 62 61 61 58 61 61 60 58
70 70 71 71 71 71 71 71 71 71 71 72 71 71 71 71 71 71 70 70 71 71 71 70 70 69 69 69 69 70 70 69 70 70 70 70 70 70 70 70 69 68 68 67 67 66 66 66 65 65 64 64 64 66 65 65 67 68 70 66 65 65 64 63 60 61 62 63 61 63 62 64 63 62 62 62 62 61 61 60 58 61 60 58 58
69 69 69 70 70 71 71 71 71 71 71 71 71 71 72 72 72 71 70 70 71 71 71 70 70 69 69 68 68 68 68 68 69 70 70 70 70 70 70 70 69 68 68 67 67 66 66 65 65 65 64 64 65 65 65 67 67 68 69 65 64 63 63 62 60 61 62 61 61 61 61 62 61 61 61 62 61 60 60 59 58 59 59 59 59
67 67 68 68 69 70 70 70 71 71 71 71 71 71 71 72 71 71 71 70 71 71 70 70 70 70 69 68 68 68 68 68 68 68 70 70 70 70 70 70 69 69 68 68 67 67 66 66 65 64 64 65 66 66 67 67 67 68 69 66 63 63 58 58 58 58 59 61 61 60 63 62 61 61 61 61 61 60 60 60 59 59 59 58 58
67 67 68 67 68 68 68 69 70 70 71 71 71 71 71 71 71 71 71 71 70 70 70 70 70 69 68 68 69 67 66 67 68 67 69 70 70 70 70 70 69 69 68 68 68 67 67 66 65 65 65 66 66 67 66 66 68 69 68 66 63 57 57 58 59 61 61 62 62 61 62 62 62 61 60 60 60 61 60 60 59 59 59 58 58
66 66 66 67 67 67 67 68 69 70 70 71 71 71 71 71 70 70 71 70 70 71 70 70 70 69 69 68 67 67 66 66 67 69 68 69 69 70 70 70 69 69 68 68 68 68 67 66 66 66 66 66 67 64 63 66 67 68 68 65 58 57 58 59 60 60 61 60 62 62 62 62 61 60 60 60 60 59 58 59 60 59 58 58 57
66 66 67 67 67 67 67 67 68 69 70 70 71 71 71 70 70 70 71 71 71 71 70 70 68 69 68 68 68 67 66 67 68 69 70 70 69 69 70 70 69 69 68 68 68 68 67 66 66 66 66 66 65 63 63 61 61 66 66 62 59 57 58 59 59 60 59 60 59 62 62 61 61 60 60 60 59 58 60 60 59 59 58 58 58
66 66 66 67 67 67 67 67 67 68 68 68 69 70 69 70 70 70 70 70 70 70 69 69 69 68 69 69 68 67 68 67 69 68 69 68 68 69 69 70 69 69 68 68 68 67 68 67 67 66 69 67 64 64 65 64 62 62 62 62 57 57 58 58 59 59 59 62 59 61 61 61 61 60 60 59 58 58 58 58 58 58 57 57 57
66 67 67 67 67 67 67 68 67 68 67 69 68 68 69 68 69 69 69 69 69 69 68 68 68 69 69 69 69 68 67 66 66 67 67 67 66 67 68 68 67 67 69 66 66 67 67 66 65 67 64 64 64 64 65 65 64 62 61 58 57 57 58 59 59 59 59 59 61 61 61 61 60 60 59 58 58 59 57 58 58 57 57 56 57
66 65 66 66 67 67 67 68 67 68 67 67 67 69 68 68 68 68 68 68 68 68 68 68 68 68 68 68 68 67 66 65 65 66 65 66 66 66 67 66 66 67 69 67 67 66 66 66 65 65 65 64 64 64 64 66 65 62 58 57 57 58 57 58 58 59 59 60 62 62 61 60 60 59 58 58 59 58 57 58 57 58 58 57 58
66 65 66 67 67 67 67 68 68 68 68 68 68 68 67 67 67 68 67 67 67 67 67 67 68 68 68 69 67 66 65 65 65 65 65 65 66 66 66 66 66 67 68 67 67 67 67 66 66 65 64 64 63 63 63 63 64 61 58 57 57 57 57 58 58 59 59 61 63 62 61 60 59 60 58 59 59 57 58 57 58 57 57 58 58
65 65 66 67 67 67 67 67 67 67 67 68 68 68 68 67 67 70 69 70 69 68 67 67 67 67 68 67 69 66 65 64 64 64 64 64 65 66 65 66 66 66 68 67 66 65 67 66 66 66 65 64 63 62 63 63 64 62 59 58 58 57 58 58 58 59 60 60 62 62 61 60 59 59 60 59 59 57 58 57 57 58 57 57 59
64 64 65 66 66 67 67 67 68 67 67 67 67 67 68 67 67 67 67 71 68 67 67 67 67 68 68 68 69 67 66 64 64 63 64 64 64 65 65 65 65 65 66 66 66 65 65 65 65 65 65 64 63 63 64 63 63 61 59 59 58 58 58 58 59 59 60 60 61 62 62 60 59 59 59 59 58 58 58 58 58 58 57 58 58
64 64 65 65 65 67 66 67 67 67 66 67 67 67 66 67 67 68 68 69 67 66 67 67 67 67 67 67 69 67 67 66 66 65 63 63 63 64 65 64 64 64 65 65 66 65 65 65 65 65 64 64 63 63 64 60 59 60 60 60 59 58 58 58 59 59 60 60 60 63 62 61 60 59 60 60 59 59 58 58 58 58 58 58 59
65 64 65 65 66 66 65 66 67 68 66 66 67 67 67 67 68 68 69 68 68 68 67 66 67 67 67 68 68 68 66 66 65 65 64 63 63 63 63 64 63 64 64 64 65 65 65 65 64 65 64 63 63 63 62 59 60 61 61 60 59 59 59 59 59 59 59 60 60 61 63 62 61 60 60 62 60 60 60 60 59 59 59 59 58
64 64 64 65 66 65 65 66 66 68 66 66 67 67 67 67 68 68 68 67 68 66 67 66 68 67 68 68 67 67 68 66 65 65 65 64 64 63 63 64 64 64 65 64 65 66 66 65 66 65 66 63 62 62 62 60 60 61 60 59 59 59 59 59 59 59 59 59 59 60 61 61 62 61 60 62 61 61 59 61 59 59 60 60 58
64 64 65 65 65 65 65 65 66 67 66 66 66 66 66 67 68 67 68 68 67 66 66 66 66 67 67 68 68 68 69 67 66 65 67 65 65 64 64 65 65 65 64 64 67 66 66 66 65 66 65 65 63 62 63 61 60 60 59 58 60 59 59 59 59 59 59 59 59 60 60 62 62 63 62 62 63 62 60 60 59 59 60 60 60
64 65 66 65 65 66 66 66 66 66 66 66 66 65 65 66 68 67 68 67 66 66 67 66 67 66 67 67 68 69 68 69 65 65 65 65 65 65 65 66 65 64 65 66 65 66 65 65 66 66 66 65 63 62 62 61 61 61 60 59 59 59 61 59 59 59 59 59 59 60 60 61 61 62 62 63 64 63 61 61 61 60 60 60 60
66 65 65 65 66 65 66 66 67 66 67 66 67 66 66 68 66 66 66 66 66 66 66 66 66 66 67 67 67 69 69 68 67 65 64 66 65 65 65 66 66 65 66 67 65 67 66 65 65 64 65 65 64 66 64 62 61 61 62 63 61 61 63 60 59 59 59 59 60 59 60 60 60 61 62 61 65 63 63 62 62 61 61 61 61
64 64 65 65 65 65 67 65 66 66 66 66 66 66 66 66 66 69 66 66 66 65 65 67 67 67 67 67 67 69 70 68 69 68 66 67 65 65 65 67 66 66 66 66 66 65 65 64 64 64 65 65 63 63 65 63 63 63 63 63 62 64 62 61 60 59 60 60 59 59 59 60 60 60 63 61 61 63 63 63 63 63 63 63 62
64 64 64 65 65 66 68 66 66 66 66 66 66 66 66 66 65 66 66 66 65 65 66 67 68 68 67 67 67 68 68 68 69 69 68 67 66 65 66 67 67 65 65 66 66 66 65 64 64 66 65 64 63 63 64 64 64 63 63 62 62 63 62 62 61 60 61 59 59 59 59 59 60 64 62 61 60 61 64 64 64 64 64 64 64
64 64 65 65 65 66 67 67 66 66 66 66 65 65 66 66 65 65 67 65 65 66 67 68 68 68 68 67 68 69 68 67 68 69 68 67 67 66 66 65 65 65 65 65 65 64 65 66 65 66 66 65 65 64 63 63 64 64 63 63 63 63 62 63 63 66 61 60 60 59 59 59 60 60 61 61 60 60 61 63 65 65 65 65 66
64 64 65 66 65 66 66 67 67 66 66 66 66 66 65 65 65 64 64 64 65 65 66 67 68 67 67 67 68 69 69 67 68 68 68 67 67 67 67 66 66 65 64 63 64 64 65 65 65 64 66 66 65 64 63 64 63 63 63 63 64 63 63 63 64 63 62 62 61 61 60 60 60 60 61 61 60 60 60 60 62 64 64 66 66
64 65 65 66 66 66 66 66 66 66 66 65 66 65 65 65 63 64 64 65 64 66 65 66 67 67 67 67 68 68 69 67 67 67 68 67 67 66 67 67 66 66 64 63 63 64 65 65 64 64 64 65 65 63 63 64 62 62 62 63 63 64 63 64 64 63 63 63 62 63 62 61 61 60 61 61 60 59 59 60 62 62 63 64 66
64 65 65 66 66 66 65 65 65 66 66 65 64 64 63 63 62 63 62 63 64 64 64 64 65 66 67 67 67 68 68 68 67 67 67 69 66 66 66 66 66 66 64 64 64 64 64 64 65 64 63 62 62 63 63 63 61 59 60 61 61 62 65 65 65 63 63 64 64 64 64 63 62 61 61 61 60 60 59 60 60 61 62 63 64
64 65 65 66 66 66 65 65 65 66 66 65 65 64 63 62 61 62 62 63 64 64 63 64 65 66 66 66 66 67 67 67 68 67 67 68 66 66 65 66 66 66 65 64 63 66 64 63 63 62 63 62 62 64 63 63 60 59 57 58 60 60 63 65 64 64 64 64 64 64 64 64 63 63 63 62 62 60 60 60 60 61 61 62 62
64 65 65 66 66 65 65 65 65 65 65 65 65 64 63 63 63 63 64 63 63 64 64 64 65 66 65 65 66 66 67 67 67 67 66 67 67 66 66 65 65 66 64 63 63 64 64 63 63 62 62 62 63 63 63 62 60 61 60 58 56 56 58 59 61 63 65 65 64 63 64 64 64 64 63 63 63 62 61 61 61 61 61 61 61
64 65 65 65 65 66 65 65 65 65 65 66 66 64 64 63 63 63 63 64 63 65 64 64 65 65 65 66 65 65 65 66 67 67 67 67 67 67 66 65 65 66 64 64 63 63 63 63 63 63 62 61 61 62 63 61 62 61 56 57 56 56 53 55 58 60 64 64 64 63 64 64 64 65 64 63 63 63 63 63 62 62 62 61 61
63 64 64 65 66 65 65 65 65 65 65 66 66 65 65 63 63 64 64 64 64 63 63 62 64 64 66 64 65 66 65 65 66 67 67 67 67 67 67 66 65 65 64 64 64 63 64 64 63 63 62 61 61 61 62 62 62 63 59 57 55 54 54 55 59 59 62 63 63 64 64 64 64 63 64 63 63 64 64 64 64 63 62 62 62
61 63 64 64 65 65 65 65 65 65 65 65 66 65 65 63 62 62 62 61 62 61 62 62 63 64 64 64 65 67 66 65 65 66 67 67 66 67 67 66 65 65 65 64 64 64 63 64 64 63 63 61 61 62 61 63 62 63 62 60 59 56 56 57 55 53 60 62 64 65 64 64 64 64 65 64 64 64 65 64 64 64 64 63 63
61 62 63 63 64 65 65 65 65 65 65 65 65 66 64 63 63 63 62 62 62 62 62 62 63 64 64 64 65 66 66 66 65 65 66 67 66 66 67 67 66 66 66 65 64 64 64 64 65 64 63 63 61 61 61 61 62 63 63 62 62 62 60 57 55 57 53 57 60 63 63 65 66 66 65 65 65 64 64 64 66 66 66 66 65
60 61 61 62 62 63 64 64 64 65 65 65 65 66 65 64 63 63 64 63 62 63 63 64 64 65 64 65 65 66 66 66 65 65 65 66 66 65 66 67 67 66 66 65 65 65 64 64 65 64 64 64 63 61 61 62 61 60 63 62 62 63 62 61 59 57 55 53 55 59 62 64 64 64 64 64 65 65 65 64 66 66 66 67 67
60 60 61 61 61 62 63 63 62 63 64 65 64 65 66 65 64 63 63 64 64 64 64 65 65 65 64 65 65 65 66 66 66 65 65 66 67 66 66 67 67 66 67 66 65 65 64 64 64 64 64 64 63 63 61 62 61 60 61 61 61 61 61 61 60 59 57 55 55 56 58 60 59 62 63 63 64 64 65 66 66 67 66 66 66
60 61 60 61 61 61 62 61 61 61 62 62 64 64 65 65 63 63 63 63 64 64 64 64 64 64 64 64 64 65 65 65 65 66 66 65 66 66 66 67 67 67 67 66 65 65 64 64 64 64 64 64 64 64 63 62 62 62 61 60 59 59 58 59 59 59 59 57 55 55 57 58 58 58 60 62 63 65 65 65 65 67 66 66 66
60 60 60 60 60 60 61 60 61 61 62 62 62 62 62 63 63 63 63 63 63 63 63 62 63 63 64 63 63 65 65 65 65 65 66 66 65 66 66 67 68 68 68 66 65 65 65 64 64 64 64 64 64 64 64 63 63 62 62 61 60 58 57 57 57 59 57 56 57 57 58 60 59 59 59 61 63 65 66 65 64 65 65 66 66